Regional Weather Roundup
Issued by NWS Little Rock, AR

Home | Current Version | Previous Version | Graphics & Text | Print | Product List | Glossary On
Versions: 1 2 3 4 5 6 7 8 9 10 11 12 13 14 15 16 17 18 19 20 21 22 23 24 25 26 27 28 29 30 31 32 33 34 35 36 37 38 39 40 41 42 43 44 45 46 47 48 49 50
000
ASUS44 KLZK 261105
RWRLZK

WEATHER ROUNDUP FOR ARKANSAS
NATIONAL WEATHER SERVICE LITTLE ROCK AR
600 AM CDT FRI AUG 26 2016

NOTE: "FAIR" INDICATES FEW OR NO CLOUDS BELOW 12,000 FEET WITH NO
SIGNIFICANT WEATHER AND/OR OBSTRUCTIONS TO VISIBILITY.

ARZ001-003-010-029-261200-
NORTHWEST ARKANSAS

CITY           SKY/WX    TMP DP  RH WIND       PRES   REMARKS
FAYETTEVILLE   CLOUDY    69  68  96 CALM      30.11R
FORT SMITH     FAIR      73  69  87 E3        30.07R
HARRISON       FAIR      71  69  93 CALM      30.13R
BENTONVILLE    FAIR      70  63  78 CALM      30.12R
ROGERS         FAIR      70  67  90 CALM      30.13R
SILOAM SPGS    FAIR      70  61  73 CALM      30.12R
HIGHFILL       FAIR      69  67  93 CALM      30.11R
SPRINGDALE     CLEAR     72  68  88 SE5       30.13
$$

ARZ004-005-016-261200-
NORTH CENTRAL ARKANSAS

CITY           SKY/WX    TMP DP  RH WIND       PRES   REMARKS
BATESVILLE     MOCLDY    75  72  88 W3        30.09R
FLIPPIN        FAIR      73  70  88 SE3       30.07S
MTN HOME       FAIR      73  71  93 CALM      30.09S
$$

ARZ040-041-261200-
WEST CENTRAL ARKANSAS

CITY           SKY/WX    TMP DP  RH WIND       PRES   REMARKS
MENA           FAIR      72  72 100 CALM      30.09S
MOUNT IDA      FAIR      72  71  97 CALM      30.07R
$$

ARZ009-017-025-026-028-261200-
NORTHEAST ARKANSAS

CITY           SKY/WX    TMP DP  RH WIND       PRES   REMARKS
CORNING          N/A     75  75 100 CALM      30.09R
JONESBORO      FAIR      75  73  93 CALM      30.06R
NEWPORT        FAIR      77  76  96 SW3       30.08R FOG
WALNUT RIDGE   FAIR      75  73  94 NW5       30.07R
BLYTHEVILLE    FAIR      75  73  93 NE3       30.08R
$$

ARZ022-023-033-042-044-261200-
CENTRAL ARKANSAS

CITY           SKY/WX    TMP DP  RH WIND       PRES   REMARKS
LITTLE ROCK    CLOUDY    76  72  87 W3        30.07R
JACKSONVILLE   FAIR      74  74 100 W2        30.07R
SEARCY         FAIR      75  75 100 CALM      30.09R FOG
HOT SPRINGS    MOCLDY    73  71  93 CALM      30.09R
RUSSELLVILLE   FAIR      73  72  96 CALM      30.08R FOG
$$

ARZ036-261200-
EAST ARKANSAS

CITY           SKY/WX    TMP DP  RH WIND       PRES   REMARKS
WEST MEMPHIS   FAIR      73  73 100 CALM      30.06R
$$

ARZ050-053-066-070-073-261200-
SOUTHWEST ARKANSAS

CITY           SKY/WX    TMP DP  RH WIND       PRES   REMARKS
ARKADELPHIA    PTSUNNY   73  73 100 CALM      30.09R FOG
CAMDEN         FAIR      72  68  88 CALM      30.08R FOG
TEXARKANA      MOCLDY    73  72  96 E5        30.08R
EL DORADO      CLOUDY    73  72  96 N8        30.08R
DE QUEEN       CLOUDY    74  74 100 CALM      30.06R
$$

ARZ056-057-069-261200-
SOUTHEAST ARKANSAS

CITY           SKY/WX    TMP DP  RH WIND       PRES   REMARKS
PINE BLUFF     FAIR      73  72  96 NW5       30.07R
STUTTGART      FAIR      73  70  88 NW6       30.07R
MONTICELLO     FAIR      75  72  90 CALM      30.06R

$$





USA.gov is the U.S. government's official web portal to all federal, state and local government web resources and services.